| time (UTC) | temp F | wind direction | speed MPH | gust MPH | rain 1hr in | rain 24hr in | rain mn in | humidity % | barometer mb |
| 20260505173658 | 84 | 169 | 0.0 | 0.0 | 0.00 | 0.00 | 0.00 | 87 | 1012.0 |
| 20260505173157 | 84 | 183 | 1.0 | 1.0 | 0.00 | 0.00 | 0.00 | 87 | 1012.0 |
| 20260505172658 | 84 | 188 | 2.0 | 2.0 | 0.00 | 0.00 | 0.00 | 87 | 1012.0 |
| 20260505172157 | 84 | 170 | 0.0 | 0.0 | 0.00 | 0.00 | 0.00 | 86 | 1012.0 |
| 20260505171658 | 84 | 177 | 1.0 | 2.0 | 0.00 | 0.00 | 0.00 | 87 | 1012.0 |
| 20260505171159 | 84 | 190 | 1.0 | 1.0 | 0.00 | 0.00 | 0.00 | 87 | 1012.0 |
| 20260505170657 | 84 | 177 | 1.0 | 1.0 | 0.00 | 0.00 | 0.00 | 87 | 1012.0 |
| 20260505170158 | 83 | 181 | 1.0 | 1.0 | 0.00 | 0.00 | 0.00 | 87 | 1012.0 |
| 20260505165658 | 83 | 187 | 0.0 | 1.0 | 0.00 | 0.00 | 0.00 | 88 | 1012.0 |
| 20260505165158 | 83 | 164 | 0.0 | 0.0 | 0.00 | 0.00 | 0.00 | 88 | 1012.0 |
| 20260505164659 | 83 | 173 | 0.0 | 1.0 | 0.00 | 0.00 | 0.00 | 88 | 1012.0 |
| 20260505164157 | 84 | 176 | 0.0 | 1.0 | 0.00 | 0.00 | 0.00 | 87 | 1012.0 |
| 20260505163657 | 84 | 214 | 3.0 | 3.0 | 0.00 | 0.00 | 0.00 | 87 | 1012.0 |
| 20260505163158 | 84 | 203 | 0.0 | 0.0 | 0.00 | 0.00 | 0.00 | 87 | 1012.0 |
| 20260505162658 | 84 | 185 | 0.0 | 1.0 | 0.00 | 0.00 | 0.00 | 87 | 1012.0 |
| 20260505162158 | 84 | 186 | 2.0 | 2.0 | 0.00 | 0.00 | 0.00 | 87 | 1012.0 |
| 20260505161657 | 84 | 215 | 2.0 | 2.0 | 0.00 | 0.00 | 0.00 | 87 | 1012.0 |
| 20260505161157 | 84 | 247 | 4.0 | 5.0 | 0.00 | 0.00 | 0.00 | 87 | 1012.0 |
| 20260505160658 | 84 | 242 | 3.0 | 3.0 | 0.00 | 0.00 | 0.00 | 87 | 1012.0 |
| 20260505160159 | 84 | 225 | 3.0 | 3.0 | 0.00 | 0.00 | 0.00 | 87 | 1013.0 |
| 20260505153158 | 84 | 222 | 2.0 | 2.0 | 0.00 | 0.00 | 0.00 | 87 | 1013.0 |
| 20260505152657 | 84 | 203 | 0.0 | 0.0 | 0.00 | 0.00 | 0.00 | 87 | 1013.0 |
| 20260505152157 | 84 | 171 | 0.0 | 0.0 | 0.00 | 0.00 | 0.00 | 86 | 1013.0 |
| 20260505151658 | 84 | 168 | 1.0 | 2.0 | 0.00 | 0.00 | 0.00 | 86 | 1013.0 |
| 20260505151201 | 84 | 180 | 0.0 | 0.0 | 0.00 | 0.00 | 0.00 | 86 | 1013.0 |
| 20260505150657 | 84 | 171 | 0.0 | 0.0 | 0.00 | 0.00 | 0.00 | 86 | 1013.0 |
| 20260505150158 | 84 | 179 | 0.0 | 0.0 | 0.00 | 0.00 | 0.00 | 86 | 1012.0 |
| 20260505140159 | 85 | 239 | 3.0 | 3.0 | 0.00 | 0.00 | 0.00 | 84 | 1013.0 |
| 20260505130157 | 85 | 296 | 4.0 | 5.0 | 0.00 | 0.00 | 0.00 | 83 | 1012.0 |
| 20260505124657 | 85 | 171 | 1.0 | 2.0 | 0.00 | 0.00 | 0.00 | 82 | 1012.0 |
| 20260505124200 | 85 | 178 | 1.0 | 2.0 | 0.00 | 0.00 | 0.00 | 82 | 1012.0 |
| 20260505123657 | 85 | 277 | 3.0 | 5.0 | 0.00 | 0.00 | 0.00 | 81 | 1012.0 |
| 20260505123157 | 85 | 232 | 2.0 | 2.0 | 0.00 | 0.00 | 0.00 | 81 | 1012.0 |
| 20260505122657 | 85 | 229 | 3.0 | 5.0 | 0.00 | 0.00 | 0.00 | 81 | 1012.0 |
| 20260505122157 | 85 | 225 | 2.0 | 3.0 | 0.00 | 0.00 | 0.00 | 81 | 1012.0 |
| 20260505121658 | 85 | 285 | 4.0 | 5.0 | 0.00 | 0.00 | 0.00 | 81 | 1012.0 |
| 20260505121157 | 85 | 204 | 3.0 | 3.0 | 0.00 | 0.00 | 0.00 | 81 | 1012.0 |
| 20260505120657 | 85 | 280 | 5.0 | 7.0 | 0.00 | 0.00 | 0.00 | 81 | 1012.0 |
| 20260505120157 | 85 | 325 | 4.0 | 5.0 | 0.00 | 0.00 | 0.00 | 80 | 1012.0 |
| 20260505115658 | 85 | 287 | 3.0 | 3.0 | 0.00 | 0.00 | 0.00 | 80 | 1012.0 |
| 20260505115157 | 85 | 197 | 2.0 | 2.0 | 0.00 | 0.00 | 0.00 | 80 | 1012.0 |
| 20260505114657 | 85 | 225 | 4.0 | 5.0 | 0.00 | 0.00 | 0.00 | 80 | 1012.0 |
| 20260505114157 | 85 | 285 | 3.0 | 3.0 | 0.00 | 0.00 | 0.00 | 80 | 1012.0 |
| 20260505113657 | 86 | 280 | 5.0 | 6.0 | 0.00 | 0.00 | 0.00 | 79 | 1012.0 |
| 20260505113157 | 86 | 298 | 3.0 | 5.0 | 0.00 | 0.00 | 0.00 | 79 | 1012.0 |
| 20260505112657 | 86 | 204 | 2.0 | 2.0 | 0.00 | 0.00 | 0.00 | 78 | 1011.0 |
| 20260505112157 | 86 | 230 | 1.0 | 1.0 | 0.00 | 0.00 | 0.00 | 78 | 1011.0 |
| 20260505111657 | 86 | 147 | 1.0 | 2.0 | 0.00 | 0.00 | 0.00 | 78 | 1011.0 |
| 20260505111157 | 86 | 156 | 2.0 | 2.0 | 0.00 | 0.00 | 0.00 | 78 | 1011.0 |
| 20260505110657 | 86 | 216 | 3.0 | 5.0 | 0.00 | 0.00 | 0.00 | 77 | 1011.0 |
| 20260505110159 | 86 | 165 | 2.0 | 2.0 | 0.00 | 0.00 | 0.00 | 77 | 1011.0 |
| 20260505102157 | 87 | 275 | 4.0 | 6.0 | 0.00 | 0.00 | 0.00 | 72 | 1010.0 |
| 20260505101658 | 87 | 295 | 3.0 | 3.0 | 0.00 | 0.00 | 0.00 | 72 | 1010.0 |
| 20260505101157 | 87 | 260 | 3.0 | 3.0 | 0.00 | 0.00 | 0.00 | 71 | 1010.0 |
| 20260505100658 | 88 | 305 | 6.0 | 7.0 | 0.00 | 0.00 | 0.00 | 71 | 1010.0 |
| 20260505100157 | 88 | 263 | 3.0 | 3.0 | 0.00 | 0.00 | 0.00 | 69 | 1010.0 |
| 20260505095657 | 88 | 182 | 2.0 | 2.0 | 0.00 | 0.00 | 0.00 | 69 | 1010.0 |
| 20260505095157 | 88 | 280 | 5.0 | 7.0 | 0.00 | 0.00 | 0.00 | 68 | 1010.0 |
| 20260505094657 | 89 | 245 | 4.0 | 5.0 | 0.00 | 0.00 | 0.00 | 69 | 1010.0 |
| 20260505094157 | 89 | 322 | 6.0 | 6.0 | 0.00 | 0.00 | 0.00 | 68 | 1010.0 |
| 20260505093657 | 89 | 286 | 8.0 | 9.0 | 0.00 | 0.00 | 0.00 | 67 | 1010.0 |
| 20260505093159 | 89 | 187 | 3.0 | 3.0 | 0.00 | 0.00 | 0.00 | 66 | 1010.0 |
| 20260505092659 | 89 | 262 | 6.0 | 9.0 | 0.00 | 0.00 | 0.00 | 66 | 1010.0 |
| 20260505092158 | 90 | 325 | 8.0 | 9.0 | 0.00 | 0.00 | 0.00 | 66 | 1010.0 |
| 20260505091658 | 90 | 315 | 6.0 | 7.0 | 0.00 | 0.00 | 0.00 | 64 | 1010.0 |
| 20260505091157 | 90 | 219 | 4.0 | 5.0 | 0.00 | 0.00 | 0.00 | 64 | 1009.0 |
| 20260505090658 | 90 | 319 | 6.0 | 7.0 | 0.00 | 0.00 | 0.00 | 64 | 1010.0 |
| 20260505090157 | 90 | 173 | 5.0 | 6.0 | 0.00 | 0.00 | 0.00 | 63 | 1010.0 |
| 20260505085657 | 90 | 300 | 7.0 | 9.0 | 0.00 | 0.00 | 0.00 | 63 | 1010.0 |
| 20260505085158 | 90 | 271 | 7.0 | 8.0 | 0.00 | 0.00 | 0.00 | 63 | 1009.0 |
| 20260505084658 | 91 | 324 | 8.0 | 9.0 | 0.00 | 0.00 | 0.00 | 62 | 1009.0 |
| 20260505084157 | 90 | 269 | 5.0 | 7.0 | 0.00 | 0.00 | 0.00 | 63 | 1009.0 |
| 20260505083657 | 91 | 278 | 9.0 | 11.0 | 0.00 | 0.00 | 0.00 | 62 | 1009.0 |
| 20260505083158 | 91 | 265 | 5.0 | 6.0 | 0.00 | 0.00 | 0.00 | 62 | 1009.0 |
| 20260505082657 | 91 | 312 | 5.0 | 7.0 | 0.00 | 0.00 | 0.00 | 61 | 1009.0 |
| 20260505082157 | 91 | 279 | 4.0 | 6.0 | 0.00 | 0.00 | 0.00 | 62 | 1009.0 |
| 20260505081659 | 91 | 271 | 9.0 | 10.0 | 0.00 | 0.00 | 0.00 | 61 | 1009.0 |
| 20260505081200 | 91 | 212 | 5.0 | 7.0 | 0.00 | 0.00 | 0.00 | 61 | 1009.0 |
| 20260505080657 | 92 | 246 | 5.0 | 6.0 | 0.00 | 0.00 | 0.00 | 63 | 1009.0 |
| 20260505080158 | 92 | 336 | 5.0 | 7.0 | 0.00 | 0.00 | 0.00 | 62 | 1009.0 |
| 20260505075659 | 92 | 274 | 4.0 | 6.0 | 0.00 | 0.00 | 0.00 | 61 | 1009.0 |
| 20260505075158 | 91 | 9 | 5.0 | 7.0 | 0.00 | 0.00 | 0.00 | 61 | 1009.0 |
| 20260505074658 | 92 | 172 | 4.0 | 6.0 | 0.00 | 0.00 | 0.00 | 61 | 1009.0 |
| 20260505074157 | 92 | 13 | 6.0 | 7.0 | 0.00 | 0.00 | 0.00 | 62 | 1009.0 |
| 20260505073657 | 91 | 301 | 4.0 | 5.0 | 0.00 | 0.00 | 0.00 | 62 | 1009.0 |
| 20260505073158 | 92 | 320 | 5.0 | 6.0 | 0.00 | 0.00 | 0.00 | 62 | 1009.0 |
| 20260505072658 | 92 | 198 | 2.0 | 2.0 | 0.00 | 0.00 | 0.00 | 62 | 1009.0 |
| 20260505072158 | 93 | 135 | 4.0 | 5.0 | 0.00 | 0.00 | 0.00 | 62 | 1009.0 |
| 20260505071658 | 93 | 291 | 6.0 | 7.0 | 0.00 | 0.00 | 0.00 | 61 | 1009.0 |
| 20260505071158 | 93 | 291 | 5.0 | 6.0 | 0.00 | 0.00 | 0.00 | 61 | 1010.0 |
| 20260505070658 | 92 | 342 | 5.0 | 6.0 | 0.00 | 0.00 | 0.00 | 62 | 1009.0 |
| 20260505070158 | 92 | 297 | 3.0 | 5.0 | 0.00 | 0.00 | 0.00 | 63 | 1009.0 |
| 20260505065657 | 92 | 280 | 8.0 | 9.0 | 0.00 | 0.00 | 0.00 | 62 | 1010.0 |
| 20260505065157 | 92 | 307 | 4.0 | 5.0 | 0.00 | 0.00 | 0.00 | 63 | 1009.0 |
| 20260505064657 | 92 | 300 | 6.0 | 7.0 | 0.00 | 0.00 | 0.00 | 62 | 1010.0 |
| 20260505064157 | 92 | 297 | 5.0 | 6.0 | 0.00 | 0.00 | 0.00 | 62 | 1010.0 |
| 20260505063657 | 91 | 339 | 6.0 | 8.0 | 0.00 | 0.00 | 0.00 | 63 | 1010.0 |
| 20260505063158 | 92 | 291 | 7.0 | 8.0 | 0.00 | 0.00 | 0.00 | 63 | 1010.0 |
| 20260505062658 | 92 | 327 | 7.0 | 8.0 | 0.00 | 0.00 | 0.00 | 63 | 1010.0 |
| 20260505062158 | 92 | 248 | 5.0 | 6.0 | 0.00 | 0.00 | 0.00 | 62 | 1010.0 |
| 20260505061657 | 92 | 275 | 2.0 | 3.0 | 0.00 | 0.00 | 0.00 | 63 | 1010.0 |
| 20260505061157 | 91 | 215 | 4.0 | 6.0 | 0.00 | 0.00 | 0.00 | 63 | 1010.0 |
| 20260505060658 | 92 | 295 | 4.0 | 5.0 | 0.00 | 0.00 | 0.00 | 63 | 1010.0 |
| 20260505060157 | 91 | 296 | 3.0 | 5.0 | 0.00 | 0.00 | 0.00 | 63 | 1010.0 |
| 20260505055657 | 91 | 239 | 5.0 | 5.0 | 0.00 | 0.00 | 0.00 | 63 | 1010.0 |
| 20260505055157 | 92 | 290 | 5.0 | 6.0 | 0.00 | 0.00 | 0.00 | 61 | 1010.0 |
| 20260505054657 | 92 | 325 | 7.0 | 8.0 | 0.00 | 0.00 | 0.00 | 64 | 1010.0 |
| 20260505054157 | 92 | 310 | 4.0 | 5.0 | 0.00 | 0.00 | 0.00 | 65 | 1010.0 |
| 20260505053657 | 92 | 322 | 4.0 | 5.0 | 0.00 | 0.00 | 0.00 | 65 | 1010.0 |
| 20260505053156 | 92 | 345 | 5.0 | 6.0 | 0.00 | 0.00 | 0.00 | 63 | 1010.0 |
| 20260505052657 | 91 | 286 | 5.0 | 6.0 | 0.00 | 0.00 | 0.00 | 64 | 1011.0 |
| 20260505052157 | 91 | 173 | 3.0 | 3.0 | 0.00 | 0.00 | 0.00 | 65 | 1011.0 |
| 20260505051657 | 91 | 297 | 6.0 | 7.0 | 0.00 | 0.00 | 0.00 | 63 | 1011.0 |
| 20260505051158 | 92 | 311 | 4.0 | 5.0 | 0.00 | 0.00 | 0.00 | 65 | 1011.0 |
| 20260505050657 | 91 | 315 | 5.0 | 8.0 | 0.00 | 0.00 | 0.00 | 64 | 1011.0 |
| 20260505050157 | 91 | 319 | 5.0 | 6.0 | 0.00 | 0.00 | 0.00 | 64 | 1011.0 |
| 20260505041657 | 91 | 198 | 5.0 | 6.0 | 0.00 | 0.00 | 0.00 | 66 | 1012.0 |
| 20260505041157 | 90 | 281 | 6.0 | 7.0 | 0.00 | 0.00 | 0.00 | 67 | 1012.0 |
| 20260505040658 | 90 | 302 | 5.0 | 6.0 | 0.00 | 0.00 | 0.00 | 68 | 1012.0 |
| 20260505040157 | 90 | 245 | 3.0 | 5.0 | 0.00 | 0.00 | 0.00 | 69 | 1012.0 |
| 20260505035658 | 90 | 245 | 3.0 | 5.0 | 0.00 | 0.00 | 0.00 | 68 | 1012.0 |
| 20260505035158 | 90 | 263 | 6.0 | 7.0 | 0.00 | 0.00 | 0.00 | 68 | 1012.0 |
| 20260505034657 | 89 | 270 | 3.0 | 5.0 | 0.00 | 0.00 | 0.00 | 69 | 1012.0 |
| 20260505034158 | 90 | 201 | 7.0 | 8.0 | 0.00 | 0.00 | 0.00 | 68 | 1012.0 |
| 20260505033658 | 89 | 165 | 1.0 | 1.0 | 0.00 | 0.00 | 0.00 | 69 | 1012.0 |
| 20260505033157 | 90 | 227 | 4.0 | 6.0 | 0.00 | 0.00 | 0.00 | 69 | 1012.0 |
| 20260505032657 | 90 | 353 | 5.0 | 6.0 | 0.00 | 0.00 | 0.00 | 69 | 1012.0 |
| 20260505032158 | 89 | 175 | 3.0 | 3.0 | 0.00 | 0.00 | 0.00 | 70 | 1013.0 |
| 20260505031657 | 90 | 287 | 7.0 | 8.0 | 0.00 | 0.00 | 0.00 | 69 | 1013.0 |
| 20260505031157 | 90 | 251 | 4.0 | 6.0 | 0.00 | 0.00 | 0.00 | 68 | 1013.0 |
| 20260505030657 | 89 | 211 | 3.0 | 3.0 | 0.00 | 0.00 | 0.00 | 71 | 1013.0 |
| 20260505030159 | 88 | 241 | 3.0 | 3.0 | 0.00 | 0.00 | 0.00 | 71 | 1013.0 |
| 20260505025659 | 88 | 291 | 4.0 | 5.0 | 0.00 | 0.00 | 0.00 | 71 | 1013.0 |
| 20260505025159 | 89 | 315 | 5.0 | 6.0 | 0.00 | 0.00 | 0.00 | 72 | 1013.0 |
| 20260505024658 | 89 | 208 | 3.0 | 3.0 | 0.00 | 0.00 | 0.00 | 72 | 1013.0 |
| 20260505024200 | 89 | 213 | 3.0 | 3.0 | 0.00 | 0.00 | 0.00 | 72 | 1013.0 |
| 20260505023208 | 88 | 262 | 8.0 | 10.0 | 0.00 | 0.00 | 0.00 | 72 | 1013.0 |
| 20260505022657 | 87 | 262 | 6.0 | 7.0 | 0.00 | 0.00 | 0.00 | 74 | 1013.0 |
| 20260505022159 | 88 | 301 | 5.0 | 6.0 | 0.00 | 0.00 | 0.00 | 74 | 1013.0 |
| 20260505021659 | 88 | 251 | 4.0 | 5.0 | 0.00 | 0.00 | 0.00 | 74 | 1013.0 |
| 20260505021158 | 87 | 277 | 7.0 | 7.0 | 0.00 | 0.00 | 0.00 | 74 | 1013.0 |
| 20260505020659 | 87 | 171 | 2.0 | 2.0 | 0.00 | 0.00 | 0.00 | 76 | 1013.0 |
| 20260505020157 | 87 | 282 | 3.0 | 5.0 | 0.00 | 0.00 | 0.00 | 76 | 1013.0 |
| 20260505015658 | 87 | 191 | 3.0 | 3.0 | 0.00 | 0.00 | 0.00 | 77 | 1013.0 |
| 20260505015157 | 86 | 320 | 4.0 | 6.0 | 0.00 | 0.00 | 0.00 | 78 | 1013.0 |
| 20260505014657 | 86 | 148 | 3.0 | 3.0 | 0.00 | 0.00 | 0.00 | 79 | 1013.0 |
| 20260505014157 | 86 | 283 | 5.0 | 6.0 | 0.00 | 0.00 | 0.00 | 80 | 1013.0 |
| 20260505013657 | 86 | 171 | 2.0 | 2.0 | 0.00 | 0.00 | 0.00 | 82 | 1013.0 |
| 20260505013157 | 86 | 180 | 0.0 | 1.0 | 0.00 | 0.00 | 0.00 | 83 | 1013.0 |
| 20260505012657 | 85 | 167 | 1.0 | 1.0 | 0.00 | 0.00 | 0.00 | 85 | 1013.0 |
| 20260505012157 | 84 | 129 | 1.0 | 2.0 | 0.00 | 0.00 | 0.00 | 86 | 1013.0 |
| 20260505011657 | 85 | 61 | 3.0 | 5.0 | 0.00 | 0.00 | 0.00 | 85 | 1013.0 |
| 20260505011157 | 85 | 164 | 1.0 | 1.0 | 0.00 | 0.00 | 0.00 | 85 | 1013.0 |
| 20260505010657 | 84 | 150 | 1.0 | 1.0 | 0.00 | 0.00 | 0.00 | 86 | 1013.0 |
| 20260505010159 | 84 | 104 | 2.0 | 2.0 | 0.00 | 0.00 | 0.00 | 87 | 1013.0 |
| 20260505005700 | 84 | 76 | 1.0 | 2.0 | 0.00 | 0.00 | 0.00 | 86 | 1013.0 |
| 20260505005159 | 83 | 144 | 2.0 | 3.0 | 0.00 | 0.00 | 0.00 | 88 | 1013.0 |
| 20260505004657 | 83 | 144 | 3.0 | 3.0 | 0.00 | 0.00 | 0.00 | 89 | 1013.0 |
| 20260505004157 | 82 | 154 | 1.0 | 1.0 | 0.00 | 0.00 | 0.00 | 89 | 1013.0 |
| 20260505003657 | 82 | 130 | 1.0 | 2.0 | 0.00 | 0.00 | 0.00 | 90 | 1013.0 |
| 20260505003158 | 82 | 143 | 2.0 | 2.0 | 0.00 | 0.00 | 0.00 | 90 | 1013.0 |
| 20260505002657 | 82 | 152 | 1.0 | 2.0 | 0.00 | 0.00 | 0.00 | 90 | 1013.0 |
| 20260505002157 | 81 | 42 | 3.0 | 3.0 | 0.00 | 0.00 | 0.00 | 91 | 1013.0 |
| 20260505001657 | 81 | 137 | 1.0 | 2.0 | 0.00 | 0.00 | 0.00 | 91 | 1013.0 |
| 20260505001157 | 82 | 106 | 3.0 | 3.0 | 0.00 | 0.00 | 0.00 | 90 | 1013.0 |
| 20260505000657 | 81 | 164 | 0.0 | 0.0 | 0.00 | 0.00 | 0.00 | 91 | 1012.0 |
| 20260505000157 | 81 | 152 | 0.0 | 1.0 | 0.00 | 0.00 | 0.00 | 92 | 1012.0 |
| 20260504235657 | 81 | 143 | 1.0 | 1.0 | 0.00 | 0.00 | 0.00 | 91 | 1012.0 |
| 20260504235157 | 81 | 106 | 3.0 | 3.0 | 0.00 | 0.00 | 0.00 | 91 | 1013.0 |
| 20260504234657 | 81 | 163 | 1.0 | 2.0 | 0.00 | 0.00 | 0.00 | 92 | 1012.0 |
| 20260504234157 | 81 | 127 | 1.0 | 1.0 | 0.00 | 0.00 | 0.00 | 93 | 1012.0 |
| 20260504233657 | 80 | 152 | 0.0 | 0.0 | 0.00 | 0.00 | 0.00 | 95 | 1012.0 |
| 20260504233157 | 80 | 157 | 1.0 | 1.0 | 0.00 | 0.00 | 0.00 | 95 | 1013.0 |
| 20260504232657 | 80 | 141 | 1.0 | 1.0 | 0.00 | 0.00 | 0.00 | 95 | 1012.0 |
| 20260504232157 | 80 | 162 | 1.0 | 1.0 | 0.00 | 0.00 | 0.00 | 95 | 1012.0 |
| 20260504231657 | 80 | 148 | 1.0 | 1.0 | 0.00 | 0.00 | 0.00 | 96 | 1012.0 |
| 20260504231157 | 79 | 155 | 1.0 | 1.0 | 0.00 | 0.00 | 0.00 | 96 | 1012.0 |
| 20260504230658 | 79 | 118 | 0.0 | 1.0 | 0.00 | 0.00 | 0.00 | 95 | 1012.0 |
| 20260504230158 | 80 | 110 | 2.0 | 3.0 | 0.00 | 0.00 | 0.00 | 95 | 1012.0 |
| 20260504225657 | 80 | 161 | 0.0 | 1.0 | 0.00 | 0.00 | 0.00 | 95 | 1012.0 |
| 20260504225158 | 80 | 163 | 0.0 | 0.0 | 0.00 | 0.00 | 0.00 | 95 | 1012.0 |
| 20260504224657 | 80 | 141 | 1.0 | 2.0 | 0.00 | 0.00 | 0.00 | 95 | 1012.0 |
| 20260504224157 | 79 | 156 | 0.0 | 0.0 | 0.00 | 0.00 | 0.00 | 95 | 1012.0 |
| 20260504223657 | 79 | 160 | 0.0 | 0.0 | 0.00 | 0.00 | 0.00 | 95 | 1012.0 |
| 20260504223157 | 79 | 157 | 0.0 | 1.0 | 0.00 | 0.00 | 0.00 | 95 | 1012.0 |
| 20260504222657 | 79 | 148 | 1.0 | 1.0 | 0.00 | 0.00 | 0.00 | 95 | 1012.0 |
| 20260504222201 | 80 | 154 | 0.0 | 0.0 | 0.00 | 0.00 | 0.00 | 95 | 1012.0 |
| 20260504221656 | 80 | 150 | 1.0 | 2.0 | 0.00 | 0.00 | 0.00 | 95 | 1012.0 |
| 20260504221157 | 80 | 147 | 1.0 | 2.0 | 0.00 | 0.00 | 0.00 | 95 | 1012.0 |
| 20260504220657 | 80 | 139 | 1.0 | 1.0 | 0.00 | 0.00 | 0.00 | 94 | 1012.0 |
| 20260504220157 | 80 | 150 | 1.0 | 1.0 | 0.00 | 0.00 | 0.00 | 94 | 1012.0 |
| 20260504215657 | 80 | 155 | 0.0 | 1.0 | 0.00 | 0.00 | 0.00 | 94 | 1011.0 |
| 20260504215157 | 80 | 157 | 1.0 | 1.0 | 0.00 | 0.00 | 0.00 | 94 | 1012.0 |
| 20260504214658 | 80 | 156 | 1.0 | 1.0 | 0.00 | 0.00 | 0.00 | 94 | 1011.0 |
| 20260504214157 | 80 | 140 | 0.0 | 0.0 | 0.00 | 0.00 | 0.00 | 94 | 1011.0 |
| 20260504213657 | 80 | 159 | 0.0 | 0.0 | 0.00 | 0.00 | 0.00 | 94 | 1011.0 |
| 20260504213157 | 80 | 160 | 0.0 | 0.0 | 0.00 | 0.00 | 0.00 | 94 | 1011.0 |
| 20260504212657 | 80 | 144 | 1.0 | 1.0 | 0.00 | 0.00 | 0.00 | 94 | 1011.0 |
| 20260504212157 | 80 | 135 | 2.0 | 2.0 | 0.00 | 0.00 | 0.00 | 94 | 1011.0 |
| 20260504211657 | 80 | 113 | 1.0 | 1.0 | 0.00 | 0.00 | 0.00 | 94 | 1011.0 |
| 20260504211157 | 80 | 151 | 2.0 | 2.0 | 0.00 | 0.00 | 0.00 | 94 | 1011.0 |
| 20260504210657 | 80 | 69 | 2.0 | 2.0 | 0.00 | 0.00 | 0.00 | 94 | 1011.0 |
| 20260504210157 | 80 | 353 | 4.0 | 5.0 | 0.00 | 0.00 | 0.00 | 94 | 1011.0 |
| 20260504205657 | 80 | 166 | 0.0 | 0.0 | 0.00 | 0.00 | 0.00 | 94 | 1011.0 |
| 20260504205157 | 80 | 141 | 3.0 | 3.0 | 0.00 | 0.00 | 0.00 | 94 | 1011.0 |
| 20260504204657 | 80 | 143 | 2.0 | 2.0 | 0.00 | 0.00 | 0.00 | 94 | 1011.0 |
| 20260504204158 | 80 | 169 | 3.0 | 5.0 | 0.00 | 0.00 | 0.00 | 94 | 1011.0 |
| 20260504203657 | 80 | 120 | 4.0 | 5.0 | 0.00 | 0.00 | 0.00 | 94 | 1011.0 |
| 20260504203158 | 80 | 153 | 3.0 | 5.0 | 0.00 | 0.00 | 0.00 | 94 | 1011.0 |
| 20260504202657 | 80 | 133 | 5.0 | 5.0 | 0.00 | 0.00 | 0.00 | 94 | 1011.0 |
| 20260504202157 | 80 | 152 | 2.0 | 2.0 | 0.00 | 0.00 | 0.00 | 94 | 1011.0 |
| 20260504201658 | 80 | 132 | 1.0 | 1.0 | 0.00 | 0.00 | 0.00 | 94 | 1011.0 |
| 20260504201157 | 80 | 158 | 2.0 | 2.0 | 0.00 | 0.00 | 0.00 | 95 | 1011.0 |
| 20260504200658 | 80 | 111 | 2.0 | 2.0 | 0.00 | 0.00 | 0.00 | 95 | 1011.0 |
| 20260504200157 | 80 | 148 | 2.0 | 2.0 | 0.00 | 0.00 | 0.00 | 95 | 1011.0 |
| 20260504195657 | 80 | 150 | 3.0 | 3.0 | 0.00 | 0.00 | 0.00 | 95 | 1011.0 |
| 20260504195157 | 80 | 137 | 1.0 | 1.0 | 0.00 | 0.00 | 0.00 | 95 | 1011.0 |
| 20260504194658 | 80 | 155 | 1.0 | 2.0 | 0.00 | 0.00 | 0.00 | 95 | 1011.0 |
| 20260504194157 | 80 | 160 | 0.0 | 1.0 | 0.00 | 0.00 | 0.00 | 95 | 1011.0 |
| 20260504193657 | 80 | 129 | 5.0 | 6.0 | 0.00 | 0.00 | 0.00 | 95 | 1011.0 |
| 20260504193157 | 80 | 123 | 5.0 | 6.0 | 0.00 | 0.00 | 0.00 | 95 | 1011.0 |
| 20260504192657 | 80 | 132 | 3.0 | 3.0 | 0.00 | 0.00 | 0.00 | 95 | 1011.0 |
| 20260504192159 | 80 | 140 | 3.0 | 5.0 | 0.00 | 0.00 | 0.00 | 95 | 1011.0 |
| 20260504191657 | 80 | 138 | 2.0 | 2.0 | 0.00 | 0.00 | 0.00 | 95 | 1011.0 |
| 20260504191157 | 80 | 128 | 3.0 | 3.0 | 0.00 | 0.00 | 0.00 | 93 | 1012.0 |
| 20260504190658 | 81 | 105 | 1.0 | 2.0 | 0.00 | 0.00 | 0.00 | 92 | 1011.0 |
| 20260504190157 | 81 | 147 | 1.0 | 1.0 | 0.00 | 0.00 | 0.00 | 91 | 1011.0 |
| 20260504185700 | 81 | 151 | 1.0 | 1.0 | 0.00 | 0.00 | 0.00 | 91 | 1012.0 |
| 20260504185158 | 81 | 154 | 1.0 | 1.0 | 0.00 | 0.00 | 0.00 | 91 | 1012.0 |
| 20260504184657 | 82 | 147 | 0.0 | 0.0 | 0.00 | 0.00 | 0.00 | 90 | 1011.0 |
| 20260504184158 | 82 | 150 | 1.0 | 1.0 | 0.00 | 0.00 | 0.00 | 90 | 1012.0 |
| 20260504183658 | 82 | 155 | 1.0 | 1.0 | 0.00 | 0.00 | 0.00 | 90 | 1012.0 |
| 20260504183158 | 82 | 153 | 1.0 | 1.0 | 0.00 | 0.00 | 0.00 | 89 | 1012.0 |
| 20260504182657 | 82 | 137 | 2.0 | 2.0 | 0.00 | 0.00 | 0.00 | 88 | 1012.0 |
| 20260504182157 | 83 | 155 | 1.0 | 1.0 | 0.00 | 0.00 | 0.00 | 87 | 1012.0 |
| 20260504181658 | 83 | 167 | 0.0 | 0.0 | 0.00 | 0.00 | 0.00 | 87 | 1012.0 |
| 20260504181157 | 83 | 169 | 0.0 | 0.0 | 0.00 | 0.00 | 0.00 | 87 | 1012.0 |
| 20260504180658 | 83 | 179 | 1.0 | 2.0 | 0.00 | 0.00 | 0.00 | 87 | 1012.0 |
| 20260504180157 | 83 | 190 | 1.0 | 2.0 | 0.00 | 0.00 | 0.00 | 87 | 1012.0 |
| 20260504175658 | 83 | 176 | 0.0 | 0.0 | 0.00 | 0.00 | 0.00 | 87 | 1012.0 |
| 20260504175158 | 83 | 179 | 1.0 | 2.0 | 0.00 | 0.00 | 0.00 | 86 | 1012.0 |
| 20260504174657 | 83 | 182 | 1.0 | 2.0 | 0.00 | 0.00 | 0.00 | 86 | 1012.0 |
| 20260504174159 | 83 | 170 | 0.0 | 0.0 | 0.00 | 0.00 | 0.00 | 86 | 1012.0 |